YAOGAN 29 DEB, 42673

Orbit data source: Space-Track

YAOGAN 29 DEB, 42673 is space debris in SSO originally from a launch on Thu, 26 Nov 2015 UTC launched from the Taiyaun Space Center, China (TSC). Debris objects in space refer to the collection of defunct objects orbiting the Earth. Examples of debris include non-operational satellites, rocket bodies, and fragments generated from explosions, collisions, or faulty payload assembly.

Loading next visibility...
Identifier
42673, 2015-069F
Orbit
SSO
Country
Flag of CNCN / PRC
Related business
Manufacturer
Unknown
Mission
Spacecraft
Bus & Motor
Unknown
Mass
Unknown
Launch date (UTC)
2015-11-26 (10 years ago)
Launch vehicle
Unknown
Launch site
Taiyaun Space Center, China (TSC)
Object type
Payload
Rocket body
Debris
Shape & HBR
Unknown shape, 0.1 m
Radar Cross Section
Small (<0.1 m²)

Expand to show TLE details & history
Last TLE update: 2 days ago

TLE from 2 days ago
0 YAOGAN 29 DEB
1 42673U 15069F   25346.35935174  .00002025  00000-0  21223-3 0  9992
2 42673  97.8995  17.2767 0001894 266.9627  93.1374 14.90686085544143
Epoch: 2025-12-12T08:37Z
TLE epoch observation values (Epoch: 2025-12-12T08:37:27.990Z)
Latitude
-0.00002°
Longitude
166.60797°
Altitude
598.904 km
Speed
7.56 km/s
True Right ascension
01h 09m 06s
True Declination
0° 00' 00"
Sunlit
Object was in full shadow at epoch
Visualization orbit readout
Latitude
Unknown
Longitude
Unknown
Altitude
Unknown
Speed
Unknown
Apparent Right ascension
Unknown
Apparent Declination
Unknown
Sunlit
N/A
Visualization observer readout
Local Sidereal Time
06:20:21
Azimuth
Unknown
Elevation
Unknown
Doppler factor
Unknown
Orbital elements
Apogee altitude
594.142 km
Perigee altitude
591.501 km
Semi-major axis
6,970.959 km
Eccentricity
0.00019
Inclination
97.8995°
RAAN
17.2767°
Arg. of periapsis
266.9627°
True anomaly
93.15907°
Mean anomaly
93.1374°
Eccentric anomaly
93.14824°
Mean motion
3.7291 °/min
Orbital period
96.54 mins
BSTAR
0.00021223
Loading maneuver chart data...
Computing Atmospheric mass density...
Loading historical data...
Loading historical data...
Loading historical data...
Loading historical data...
Loading historical data...
Loading historical data...
Loading historical data...
Other satellites on launch #69 in the year 2015 (2015-11-26 UTC)

Documentation

Showing up to 5 results
|